Weather History for Keahole Point, HI

Change the Weather History Date:

Monday, June 4, 2012

  Actual Average Record
Temperature  
Mean Temperature 77 °F -  
Max Temperature 82 °F 81 °F 89 °F (1986)
Min Temperature 72 °F 72 °F 70 °F (1984)
Cooling Degree Days 12    
Growing Degree Days 27 (Base 50)    
Moisture  
Dew Point 64 °F    
Average Humidity 65    
Maximum Humidity 73    
Minimum Humidity 56    
Precipitation  
Precipitation 0.00 in - - ()
Sea Level Pressure  
Sea Level Pressure 30.02 in    
Wind  
Wind Speed 7 mph (SSE)    
Max Wind Speed 14 mph    
Max Gust Speed -    
Visibility 10 miles    
Events      
Averages and records for this station are not official NWS values.
T = Trace of Precipitation, MM = Missing Value Source: NWS Daily Summary

Daily Weather History Graph

Daily Weather History Graph

Search for Another Location

Airport:

Trip Planner

Search our weather history database for the weather conditions in past years. The results will help you decide how hot, cold, wet, or windy it might be!

Date:

Astronomy

Jun. 04, 2012 Rise Set
Actual Time 5:44 AM HST 7:00 PM HST
Civil Twilight 5:20 AM HST 7:25 PM HST
Nautical Twilight 4:51 AM HST 7:54 PM HST
Astronomical Twilight 4:21 AM HST 8:24 PM HST
Moon 7:43 PM HST (6/4) 6:01 AM HST (6/4)
Length of Visible Light 14h 05m
Length of Day
13h 16m
Full, 100% of the Moon is Illuminated
Jun 4
Full
Jun 11
Last Quarter
Jun 19
New
Jun 26
First Quarter
Jul 3
Full

Hourly Weather History & Observations

Time (HST) Temp. Heat Index Dew Point Humidity Pressure Visibility Wind Dir Wind Speed Gust Speed Precip Events Conditions
12:05 AM 73.4 °F - 62.6 °F 69% 30.03 in 10.0 mi ESE 6.9 mph - N/A   Mostly Cloudy
12:53 AM 73.9 °F - 64.0 °F 71% 30.01 in 10.0 mi ESE 8.1 mph - N/A   Clear
1:53 AM 73.0 °F - 63.0 °F 71% 30.00 in 10.0 mi East 4.6 mph - N/A   Mostly Cloudy
2:53 AM 73.0 °F - 63.0 °F 71% 29.99 in 10.0 mi Calm Calm - N/A   Partly Cloudy
3:53 AM 72.0 °F - 63.0 °F 73% 29.99 in 10.0 mi ESE 6.9 mph - N/A   Clear
4:53 AM 72.0 °F - 63.0 °F 73% 30.00 in 10.0 mi ESE 5.8 mph - N/A   Clear
5:53 AM 72.0 °F - 63.0 °F 73% 30.01 in 10.0 mi East 6.9 mph - N/A   Clear
6:53 AM 73.9 °F - 60.1 °F 62% 30.03 in 10.0 mi ENE 5.8 mph - N/A   Clear
7:53 AM 77.0 °F - 64.0 °F 64% 30.03 in 10.0 mi SSE 3.5 mph - N/A   Clear
8:53 AM 78.1 °F - 64.9 °F 64% 30.04 in 10.0 mi SSW 6.9 mph - N/A   Clear
9:53 AM 79.0 °F - 66.0 °F 64% 30.04 in 10.0 mi SSW 8.1 mph - N/A   Clear
10:53 AM 81.0 °F 83.0 °F 66.0 °F 60% 30.04 in 10.0 mi South 12.7 mph - N/A   Clear
11:53 AM 80.1 °F 82.1 °F 66.0 °F 62% 30.04 in 10.0 mi SSW 12.7 mph - N/A   Overcast
12:33 PM 82.4 °F 84.6 °F 66.2 °F 58% 30.02 in 10.0 mi SSW 12.7 mph - N/A   Scattered Clouds
12:53 PM 81.0 °F 83.0 °F 66.0 °F 60% 30.01 in 10.0 mi SW 13.8 mph - N/A   Mostly Cloudy
1:53 PM 80.1 °F 82.1 °F 66.0 °F 62% 30.00 in 10.0 mi SSW 12.7 mph - N/A   Overcast
2:53 PM 79.0 °F - 66.0 °F 64% 30.00 in 10.0 mi SW 9.2 mph - N/A   Overcast
3:53 PM 79.0 °F - 64.9 °F 62% 30.00 in 10.0 mi SW 9.2 mph - N/A   Overcast
4:53 PM 80.1 °F 82.1 °F 66.0 °F 62% 30.01 in 10.0 mi South 6.9 mph - N/A   Overcast
5:53 PM 78.1 °F - 66.0 °F 66% 30.01 in 10.0 mi South 5.8 mph - N/A   Overcast
6:53 PM 77.0 °F - 64.9 °F 66% 30.02 in 10.0 mi South 6.9 mph - N/A   Overcast
7:53 PM 77.0 °F - 64.9 °F 66% 30.04 in 10.0 mi South 5.8 mph - N/A   Overcast
8:53 PM 77.0 °F - 62.1 °F 60% 30.05 in 10.0 mi SE 6.9 mph - N/A   Mostly Cloudy
9:53 PM 77.0 °F - 60.1 °F 56% 30.06 in 10.0 mi East 9.2 mph - N/A   Partly Cloudy
10:53 PM 75.9 °F - 63.0 °F 64% 30.06 in 10.0 mi East 5.8 mph - N/A   Partly Cloudy
11:53 PM 75.9 °F - 61.0 °F 60% 30.05 in 10.0 mi NNE 9.2 mph - N/A   Mostly Cloudy